When you browse on this site, cookies collect data to enhance your experience and personalize the content and advertising you see.
Visit our Privacy Policy to learn more. By continuing to use the site, you agree to this use of cookies and data.
  • In Spain
  • List of Countries
  • For 7 days
  • Water Temperature
  • Satellite Maps
  • Weather Map
  • Weather Widgets
  • user-avatar
    Login

    Hourly Weather Chervonyi Kut

    Today, 23 May, Thursday

    Time Temperature Precipitation Wind Pressure Humidity
    00:00 +15°C° 0 mm 1 mps 743 mmHg 92%
    01:00 +15°C° 0 mm 1 mps 742 mmHg 93%
    02:00 +13°C° 0 mm 2 mps 742 mmHg 94%
    03:00 +14°C° 0 mm 2 mps 742 mmHg 94%
    04:00 +14°C° 0 mm 1 mps 742 mmHg 93%
    05:00 +14°C° 0 mm 1 mps 742 mmHg 93%
    06:00 +15°C° 0 mm 1 mps 742 mmHg 87%
    07:00 +18°C° 0 mm 1 mps 742 mmHg 82%
    08:00 +19°C° 0 mm 1 mps 742 mmHg 79%
    09:00 +20°C° 0.1 mm 1 mps 742 mmHg 73%
    10:00 +21°C° 0.1 mm 1 mps 742 mmHg 67%
    11:00 +21°C° 0.1 mm 0 mps 742 mmHg 61%
    12:00 +21°C° 0 mm 0 mps 741 mmHg 57%
    13:00 +22°C° 0 mm 0 mps 741 mmHg 54%
    14:00 +23°C° 0 mm 0 mps 741 mmHg 51%
    15:00 +23°C° 0 mm 0 mps 741 mmHg 53%
    16:00 +24°C° 0 mm 1 mps 741 mmHg 55%
    17:00 +24°C° 0 mm 1 mps 741 mmHg 57%
    18:00 +22°C° 0 mm 1 mps 741 mmHg 62%
    19:00 +21°C° 0 mm 1 mps 741 mmHg 67%
    20:00 +19°C° 0 mm 1 mps 741 mmHg 71%
    21:00 +19°C° 0 mm 1 mps 742 mmHg 74%
    22:00 +18°C° 0 mm 1 mps 742 mmHg 77%
    23:00 +18°C° 0 mm 1 mps 742 mmHg 80%

    Tomorrow, 24 May, Friday

    Time Temperature Precipitation Wind Pressure Humidity
    00:00 +16°C° 0 mm 1 mps 742 mmHg 82%
    01:00 +16°C° 0 mm 2 mps 742 mmHg 84%
    02:00 +15°C° 0 mm 2 mps 743 mmHg 85%
    03:00 +16°C° 0 mm 1 mps 743 mmHg 86%
    04:00 +16°C° 0 mm 1 mps 743 mmHg 86%
    05:00 +16°C° 0 mm 1 mps 743 mmHg 86%
    06:00 +19°C° 0 mm 1 mps 743 mmHg 79%
    07:00 +21°C° 0 mm 1 mps 743 mmHg 73%
    08:00 +23°C° 0 mm 1 mps 743 mmHg 66%
    09:00 +24°C° 0.2 mm 1 mps 743 mmHg 62%
    10:00 +25°C° 0.2 mm 1 mps 743 mmHg 57%
    11:00 +26°C° 0.2 mm 1 mps 743 mmHg 53%
    12:00 +26°C° 0.5 mm 1 mps 743 mmHg 52%
    13:00 +26°C° 0.5 mm 1 mps 743 mmHg 51%
    14:00 +26°C° 0.5 mm 1 mps 743 mmHg 50%
    15:00 +26°C° 0 mm 1 mps 743 mmHg 53%
    16:00 +26°C° 0 mm 1 mps 742 mmHg 57%
    17:00 +25°C° 0 mm 1 mps 742 mmHg 60%
    18:00 +24°C° 0 mm 1 mps 742 mmHg 60%
    19:00 +23°C° 0 mm 1 mps 742 mmHg 61%
    20:00 +22°C° 0 mm 1 mps 743 mmHg 61%
    21:00 +20°C° 0.1 mm 2 mps 743 mmHg 65%
    22:00 +19°C° 0.1 mm 2 mps 743 mmHg 69%
    23:00 +18°C° 0.1 mm 3 mps 743 mmHg 74%

    Day after tomorrow, 25 May, Saturday

    Time Temperature Precipitation Wind Pressure Humidity
    00:00 +18°C° 0 mm 2 mps 742 mmHg 76%
    01:00 +17°C° 0 mm 2 mps 742 mmHg 78%
    02:00 +17°C° 0 mm 2 mps 742 mmHg 81%
    03:00 +17°C° 0.3 mm 2 mps 742 mmHg 82%
    04:00 +17°C° 0.3 mm 2 mps 742 mmHg 83%
    05:00 +17°C° 0.3 mm 2 mps 742 mmHg 84%
    06:00 +18°C° 0.2 mm 2 mps 742 mmHg 81%
    07:00 +18°C° 0.2 mm 2 mps 742 mmHg 77%
    08:00 +19°C° 0.2 mm 2 mps 743 mmHg 74%
    09:00 +21°C° 0 mm 2 mps 742 mmHg 67%
    10:00 +23°C° 0 mm 2 mps 742 mmHg 60%
    11:00 +24°C° 0 mm 2 mps 742 mmHg 53%
    12:00 +25°C° 0 mm 2 mps 742 mmHg 51%
    13:00 +25°C° 0 mm 2 mps 742 mmHg 49%
    14:00 +26°C° 0 mm 2 mps 741 mmHg 47%
    15:00 +26°C° 0 mm 2 mps 741 mmHg 50%
    16:00 +25°C° 0 mm 2 mps 740 mmHg 54%
    17:00 +25°C° 0 mm 1 mps 740 mmHg 57%
    18:00 +24°C° 0.1 mm 1 mps 740 mmHg 61%
    19:00 +22°C° 0.1 mm 1 mps 740 mmHg 65%
    20:00 +20°C° 0.1 mm 1 mps 740 mmHg 69%
    21:00 +20°C° 0.3 mm 1 mps 740 mmHg 72%
    22:00 +18°C° 0.3 mm 2 mps 740 mmHg 75%
    23:00 +17°C° 0.3 mm 2 mps 740 mmHg 78%

    26 May, Sunday

    Time Temperature Precipitation Wind Pressure Humidity
    00:00 +17°C° 0 mm 2 mps 740 mmHg 79%
    01:00 +17°C° 0 mm 2 mps 740 mmHg 81%
    02:00 +16°C° 0 mm 2 mps 740 mmHg 82%
    03:00 +16°C° 0 mm 2 mps 740 mmHg 84%
    04:00 +16°C° 0 mm 3 mps 740 mmHg 85%
    05:00 +16°C° 0 mm 3 mps 740 mmHg 87%
    06:00 +18°C° 0 mm 3 mps 740 mmHg 83%
    07:00 +19°C° 0 mm 4 mps 740 mmHg 79%
    08:00 +21°C° 0 mm 4 mps 741 mmHg 74%
    09:00 +22°C° 1.7 mm 4 mps 741 mmHg 71%
    10:00 +23°C° 1.7 mm 5 mps 741 mmHg 67%
    11:00 +25°C° 1.7 mm 5 mps 741 mmHg 63%
    12:00 +25°C° 0.6 mm 5 mps 741 mmHg 62%
    13:00 +26°C° 0.6 mm 5 mps 741 mmHg 61%
    14:00 +26°C° 0.6 mm 5 mps 741 mmHg 60%
    15:00 +25°C° 0.7 mm 4 mps 741 mmHg 65%
    16:00 +23°C° 0.7 mm 4 mps 742 mmHg 69%
    17:00 +23°C° 0.7 mm 4 mps 742 mmHg 74%
    18:00 +21°C° 0 mm 3 mps 742 mmHg 79%
    19:00 +20°C° 0 mm 3 mps 743 mmHg 83%
    20:00 +18°C° 0 mm 3 mps 743 mmHg 88%
    21:00 +18°C° 0 mm 3 mps 743 mmHg 89%
    22:00 +17°C° 0 mm 3 mps 744 mmHg 90%
    23:00 +16°C° 0 mm 3 mps 744 mmHg 91%

    27 May, Monday

    Time Temperature Precipitation Wind Pressure Humidity
    00:00 +16°C° 0 mm 3 mps 745 mmHg 91%
    01:00 +16°C° 0 mm 3 mps 745 mmHg 92%
    02:00 +14°C° 0 mm 3 mps 746 mmHg 93%
    03:00 +15°C° 0 mm 2 mps 746 mmHg 92%
    04:00 +15°C° 0 mm 2 mps 746 mmHg 91%
    05:00 +15°C° 0 mm 2 mps 747 mmHg 90%
    06:00 +17°C° 0 mm 2 mps 747 mmHg 82%
    07:00 +19°C° 0 mm 3 mps 747 mmHg 75%
    08:00 +21°C° 0 mm 3 mps 748 mmHg 67%
    09:00 +22°C° 0 mm 3 mps 748 mmHg 62%
    10:00 +23°C° 0 mm 4 mps 748 mmHg 58%
    11:00 +25°C° 0 mm 4 mps 748 mmHg 53%
    12:00 +26°C° 0 mm 4 mps 748 mmHg 53%
    13:00 +26°C° 0 mm 4 mps 748 mmHg 53%
    14:00 +27°C° 0 mm 4 mps 748 mmHg 53%
    15:00 +27°C° 0.1 mm 3 mps 748 mmHg 55%
    16:00 +27°C° 0.1 mm 3 mps 748 mmHg 57%
    17:00 +27°C° 0.1 mm 2 mps 748 mmHg 59%
    18:00 +25°C° 0.1 mm 2 mps 748 mmHg 63%
    19:00 +23°C° 0.1 mm 2 mps 749 mmHg 68%
    20:00 +21°C° 0.1 mm 1 mps 749 mmHg 72%
    21:00 +20°C° 0 mm 2 mps 749 mmHg 73%
    22:00 +19°C° 0 mm 2 mps 749 mmHg 74%
    23:00 +19°C° 0 mm 2 mps 749 mmHg 75%

    28 May, Tuesday

    Time Temperature Precipitation Wind Pressure Humidity
    00:00 +18°C° 0 mm 2 mps 749 mmHg 77%
    01:00 +18°C° 0 mm 2 mps 749 mmHg 80%
    02:00 +17°C° 0 mm 3 mps 749 mmHg 82%
    03:00 +17°C° 0 mm 2 mps 750 mmHg 83%
    04:00 +18°C° 0 mm 2 mps 750 mmHg 83%
    05:00 +18°C° 0 mm 2 mps 750 mmHg 83%
    06:00 +20°C° 0 mm 2 mps 750 mmHg 77%
    07:00 +21°C° 0 mm 3 mps 750 mmHg 71%
    08:00 +24°C° 0 mm 3 mps 750 mmHg 65%
    09:00 +25°C° 0 mm 4 mps 750 mmHg 62%
    10:00 +27°C° 0 mm 4 mps 750 mmHg 59%
    11:00 +28°C° 0 mm 5 mps 750 mmHg 56%
    12:00 +28°C° 0 mm 5 mps 750 mmHg 55%
    13:00 +28°C° 0 mm 5 mps 750 mmHg 54%
    14:00 +29°C° 0 mm 5 mps 749 mmHg 53%
    15:00 +28°C° 0 mm 5 mps 749 mmHg 56%
    16:00 +28°C° 0 mm 4 mps 749 mmHg 59%
    17:00 +28°C° 0 mm 4 mps 749 mmHg 61%
    18:00 +26°C° 0 mm 4 mps 749 mmHg 66%
    19:00 +23°C° 0 mm 4 mps 749 mmHg 71%
    20:00 +21°C° 0 mm 3 mps 749 mmHg 77%
    21:00 +20°C° 0 mm 3 mps 749 mmHg 79%
    22:00 +20°C° 0 mm 3 mps 749 mmHg 81%
    23:00 +19°C° 0 mm 3 mps 749 mmHg 83%
    Show more